When you browse on this site, cookies collect data to enhance your experience and personalize the content and advertising you see.
Visit our Privacy Policy to learn more. By continuing to use the site, you agree to this use of cookies and data.
  • en France
  • Liste des pays
  • À 7 jours
  • Température de l'eau
  • Carte satellitaire
  • Carte météo
  • Widgets météo
  • user-avatar
    Se connecter

    Météo par heure à Radcliffe

    Ce jour, 18 Juin, Mardi

    Heure Température Précipitation Vent Pression Humidité
    00:00 +12°C° 0 mm 2 m/s 752 mmHg 78%
    01:00 +12°C° 0 mm 2 m/s 752 mmHg 80%
    02:00 +12°C° 0 mm 2 m/s 752 mmHg 82%
    03:00 +10°C° 0 mm 2 m/s 752 mmHg 84%
    04:00 +12°C° 0 mm 2 m/s 752 mmHg 83%
    05:00 +13°C° 0 mm 2 m/s 752 mmHg 83%
    06:00 +13°C° 0 mm 2 m/s 752 mmHg 82%
    07:00 +13°C° 0 mm 3 m/s 752 mmHg 76%
    08:00 +14°C° 0 mm 3 m/s 752 mmHg 71%
    09:00 +17°C° 0 mm 3 m/s 752 mmHg 65%
    10:00 +17°C° 0 mm 3 m/s 752 mmHg 63%
    11:00 +18°C° 0 mm 3 m/s 752 mmHg 60%
    12:00 +19°C° 0 mm 3 m/s 752 mmHg 58%
    13:00 +19°C° 0 mm 3 m/s 751 mmHg 58%
    14:00 +19°C° 0 mm 2 m/s 751 mmHg 58%
    15:00 +20°C° 0 mm 2 m/s 751 mmHg 58%
    16:00 +19°C° 0.2 mm 2 m/s 751 mmHg 64%
    17:00 +18°C° 0.2 mm 2 m/s 751 mmHg 69%
    18:00 +17°C° 0.2 mm 2 m/s 750 mmHg 75%
    19:00 +16°C° 0 mm 1 m/s 750 mmHg 77%
    20:00 +15°C° 0 mm 1 m/s 750 mmHg 79%
    21:00 +14°C° 0 mm 0 m/s 750 mmHg 81%
    22:00 +13°C° 0.1 mm 0 m/s 750 mmHg 81%
    23:00 +13°C° 0.1 mm 0 m/s 750 mmHg 81%

    Demain, 19 Juin, Mercredi

    Heure Température Précipitation Vent Pression Humidité
    00:00 +13°C° 0.1 mm 0 m/s 750 mmHg 81%
    01:00 +14°C° 0.1 mm 1 m/s 749 mmHg 81%
    02:00 +13°C° 0.1 mm 1 m/s 749 mmHg 81%
    03:00 +13°C° 0.1 mm 1 m/s 748 mmHg 81%
    04:00 +13°C° 0.1 mm 1 m/s 748 mmHg 81%
    05:00 +13°C° 0.1 mm 1 m/s 748 mmHg 81%
    06:00 +13°C° 0.1 mm 1 m/s 748 mmHg 81%
    07:00 +13°C° 0.1 mm 1 m/s 748 mmHg 81%
    08:00 +13°C° 0.1 mm 1 m/s 748 mmHg 80%
    09:00 +13°C° 0.1 mm 1 m/s 748 mmHg 80%
    10:00 +13°C° 0 mm 1 m/s 748 mmHg 78%
    11:00 +14°C° 0 mm 1 m/s 748 mmHg 77%
    12:00 +15°C° 0 mm 1 m/s 748 mmHg 75%
    13:00 +16°C° 0.1 mm 2 m/s 748 mmHg 72%
    14:00 +17°C° 0.1 mm 3 m/s 748 mmHg 68%
    15:00 +18°C° 0.1 mm 4 m/s 747 mmHg 65%
    16:00 +17°C° 0 mm 4 m/s 747 mmHg 65%
    17:00 +17°C° 0 mm 4 m/s 747 mmHg 66%
    18:00 +17°C° 0 mm 4 m/s 747 mmHg 66%
    19:00 +14°C° 0 mm 3 m/s 748 mmHg 70%
    20:00 +14°C° 0 mm 2 m/s 748 mmHg 74%
    21:00 +13°C° 0 mm 1 m/s 748 mmHg 77%
    22:00 +12°C° 0 mm 2 m/s 748 mmHg 79%
    23:00 +12°C° 0 mm 2 m/s 748 mmHg 81%

    Après-demain, 20 Juin, Jeudi

    Heure Température Précipitation Vent Pression Humidité
    00:00 +12°C° 0 mm 2 m/s 748 mmHg 83%
    01:00 +12°C° 0 mm 2 m/s 748 mmHg 85%
    02:00 +12°C° 0 mm 2 m/s 748 mmHg 86%
    03:00 +12°C° 0 mm 2 m/s 748 mmHg 87%
    04:00 +11°C° 0.1 mm 3 m/s 749 mmHg 85%
    05:00 +11°C° 0.1 mm 3 m/s 749 mmHg 84%
    06:00 +12°C° 0.1 mm 3 m/s 749 mmHg 83%
    07:00 +12°C° 0.3 mm 4 m/s 749 mmHg 79%
    08:00 +13°C° 0.3 mm 4 m/s 749 mmHg 75%
    09:00 +13°C° 0.3 mm 5 m/s 749 mmHg 71%
    10:00 +14°C° 0.1 mm 5 m/s 750 mmHg 66%
    11:00 +14°C° 0.1 mm 5 m/s 750 mmHg 61%
    12:00 +15°C° 0.1 mm 6 m/s 750 mmHg 56%
    13:00 +15°C° 0 mm 6 m/s 750 mmHg 55%
    14:00 +15°C° 0 mm 6 m/s 750 mmHg 54%
    15:00 +16°C° 0 mm 6 m/s 750 mmHg 53%
    16:00 +15°C° 0 mm 5 m/s 750 mmHg 56%
    17:00 +15°C° 0 mm 5 m/s 751 mmHg 58%
    18:00 +14°C° 0 mm 4 m/s 751 mmHg 61%
    19:00 +13°C° 0 mm 4 m/s 751 mmHg 67%
    20:00 +12°C° 0 mm 3 m/s 752 mmHg 72%
    21:00 +12°C° 0 mm 2 m/s 752 mmHg 77%
    22:00 +12°C° 0 mm 2 m/s 752 mmHg 79%
    23:00 +10°C° 0 mm 2 m/s 752 mmHg 80%

    21 Juin, Vendredi

    Heure Température Précipitation Vent Pression Humidité
    00:00 +11°C° 0 mm 1 m/s 753 mmHg 82%
    01:00 +10°C° 0 mm 1 m/s 753 mmHg 83%
    02:00 +10°C° 0 mm 1 m/s 753 mmHg 84%
    03:00 +10°C° 0 mm 1 m/s 753 mmHg 85%
    04:00 +9°C° 0 mm 2 m/s 753 mmHg 85%
    05:00 +10°C° 0 mm 2 m/s 753 mmHg 84%
    06:00 +10°C° 0 mm 2 m/s 753 mmHg 84%
    07:00 +12°C° 0.2 mm 3 m/s 753 mmHg 78%
    08:00 +13°C° 0.2 mm 4 m/s 754 mmHg 72%
    09:00 +14°C° 0.2 mm 5 m/s 754 mmHg 67%
    10:00 +14°C° 0.1 mm 5 m/s 754 mmHg 63%
    11:00 +15°C° 0.1 mm 5 m/s 754 mmHg 60%
    12:00 +15°C° 0.1 mm 5 m/s 754 mmHg 57%
    13:00 +15°C° 0 mm 5 m/s 754 mmHg 56%
    14:00 +15°C° 0 mm 5 m/s 755 mmHg 55%
    15:00 +15°C° 0 mm 5 m/s 755 mmHg 55%
    16:00 +15°C° 0 mm 5 m/s 755 mmHg 57%
    17:00 +14°C° 0 mm 4 m/s 755 mmHg 59%
    18:00 +14°C° 0 mm 4 m/s 755 mmHg 61%
    19:00 +13°C° 0 mm 3 m/s 756 mmHg 66%
    20:00 +12°C° 0 mm 2 m/s 756 mmHg 70%
    21:00 +11°C° 0 mm 1 m/s 757 mmHg 75%
    22:00 +11°C° 0 mm 1 m/s 757 mmHg 77%
    23:00 +10°C° 0 mm 1 m/s 757 mmHg 79%

    22 Juin, Samedi

    Heure Température Précipitation Vent Pression Humidité
    00:00 +9°C° 0 mm 0 m/s 757 mmHg 81%
    01:00 +8°C° 0 mm 0 m/s 757 mmHg 81%
    02:00 +8°C° 0 mm 0 m/s 757 mmHg 82%
    03:00 +8°C° 0 mm 0 m/s 757 mmHg 82%
    04:00 +9°C° 0 mm 0 m/s 757 mmHg 79%
    05:00 +10°C° 0 mm 0 m/s 757 mmHg 77%
    06:00 +11°C° 0 mm 0 m/s 757 mmHg 74%
    07:00 +13°C° 0 mm 1 m/s 757 mmHg 67%
    08:00 +15°C° 0 mm 1 m/s 758 mmHg 60%
    09:00 +16°C° 0 mm 1 m/s 758 mmHg 53%
    10:00 +18°C° 0 mm 1 m/s 757 mmHg 50%
    11:00 +19°C° 0 mm 1 m/s 757 mmHg 48%
    12:00 +20°C° 0 mm 1 m/s 757 mmHg 45%
    13:00 +20°C° 0 mm 1 m/s 757 mmHg 47%
    14:00 +19°C° 0 mm 2 m/s 757 mmHg 49%
    15:00 +19°C° 0 mm 2 m/s 757 mmHg 51%
    16:00 +19°C° 0 mm 2 m/s 757 mmHg 53%
    17:00 +20°C° 0 mm 1 m/s 757 mmHg 56%
    18:00 +19°C° 0 mm 1 m/s 757 mmHg 58%
    19:00 +18°C° 0 mm 1 m/s 757 mmHg 63%
    20:00 +16°C° 0 mm 1 m/s 757 mmHg 67%
    21:00 +15°C° 0 mm 1 m/s 758 mmHg 71%
    22:00 +14°C° 0 mm 1 m/s 757 mmHg 73%
    23:00 +14°C° 0 mm 1 m/s 757 mmHg 75%

    23 Juin, Dimanche

    Heure Température Précipitation Vent Pression Humidité
    00:00 +13°C° 0 mm 1 m/s 757 mmHg 77%
    01:00 +13°C° 0 mm 1 m/s 757 mmHg 79%
    02:00 +13°C° 0 mm 1 m/s 757 mmHg 81%
    03:00 +13°C° 0 mm 1 m/s 757 mmHg 82%
    04:00 +13°C° 0 mm 1 m/s 757 mmHg 82%
    05:00 +14°C° 0 mm 2 m/s 757 mmHg 82%
    06:00 +14°C° 0 mm 2 m/s 758 mmHg 82%
    07:00 +15°C° 0.1 mm 2 m/s 758 mmHg 77%
    08:00 +16°C° 0.1 mm 3 m/s 758 mmHg 73%
    09:00 +17°C° 0.1 mm 4 m/s 758 mmHg 68%
    10:00 +18°C° 0 mm 4 m/s 758 mmHg 65%
    11:00 +18°C° 0 mm 4 m/s 758 mmHg 63%
    12:00 +19°C° 0 mm 4 m/s 757 mmHg 61%
    13:00 +19°C° 0 mm 4 m/s 757 mmHg 59%
    14:00 +20°C° 0 mm 4 m/s 757 mmHg 57%
    15:00 +21°C° 0 mm 4 m/s 756 mmHg 56%
    16:00 +20°C° 0 mm 4 m/s 756 mmHg 57%
    17:00 +20°C° 0 mm 5 m/s 756 mmHg 59%
    18:00 +19°C° 0 mm 5 m/s 756 mmHg 61%
    19:00 +17°C° 0 mm 5 m/s 757 mmHg 64%
    20:00 +17°C° 0 mm 4 m/s 757 mmHg 68%
    21:00 +14°C° 0 mm 4 m/s 757 mmHg 71%
    22:00 +14°C° 0 mm 4 m/s 757 mmHg 73%
    23:00 +14°C° 0 mm 5 m/s 757 mmHg 76%
    Voir plus